Flag for Slovakia Weather past 2 weeks in Bratislava, Slovakia

Now
34 °F

Passing clouds.


Feels Like: 30 °F
Forecast: 26 / 32 °F
Wind: 5 mph from Northwest

Location: Bratislava Ivanka

Current Time: Jan 28, 2015 at 3:06:21 AM

Latest Report: Jan 28, 2015 at 2:30 AM


Visibility: N/A

Pressure: 30.07 "Hg

Humidity: 81%

Dew point: 28 °F

Location of BratislavaLocation

Historic Weather in Bratislava — Graph

°F

Bratislava temperature yesterday

Maximum temperature yesterday: 36 °F (at 10:00 PM)
Minimum temperature yesterday: 23 °F (at 3:00 AM)
Average temperature yesterday: 28 °F

Past Weeks' High & Low Weather Summary

 TemperatureHumidityPressure
High50 °F (Jan 16, 1:00 PM)100% (Jan 20, 11:00 AM)30.30 "Hg (Jan 20, 11:00 AM)
Low23 °F (Jan 27, 3:00 AM)53% (Jan 15, 1:00 PM)29.80 "Hg (Jan 17, 5:00 AM)
Average37 °F81%30.01 "Hg
* Reported Jan 13 2:00 AM — Jan 28 2:00 AM, Bratislava, Weather by CustomWeather, © 2014

Note: Actual official high and low records may vary slightly from our data, if they occured in-between our weather recording intervals... More about our weather records

Advertising

Bratislava weather history for previous 24 hours

 ConditionsComfort  
Time TempWeatherWind HumidityBarometerVisibility
2:00 AM
Jan 28
36 °FPassing clouds.8 mph75%30.07 "HgN/A
1:30 AM36 °FPassing clouds.10 mph75%30.07 "HgN/A
1:00 AM36 °FPassing clouds.10 mph75%30.07 "HgN/A
12:30 AM36 °FPassing clouds.9 mph75%30.07 "HgN/A
12:00 AM36 °FClear.10 mph81%30.07 "Hg10 mi
11:30 PM
Jan 27
36 °FClear.7 mph81%30.07 "Hg10 mi
11:00 PM36 °FPassing clouds.9 mph81%30.07 "HgN/A
10:30 PM36 °FPassing clouds.8 mph75%30.04 "HgN/A
10:00 PM36 °FPassing clouds.8 mph81%30.04 "HgN/A
9:30 PM34 °FPassing clouds.6 mph87%30.04 "HgN/A
9:00 PM30 °FPassing clouds.1 mph86%30.04 "Hg4 mi
8:30 PM28 °FIce fog.No wind93%30.04 "Hg3 mi
8:00 PM28 °FIce fog.1 mph93%30.04 "Hg2 mi
7:30 PM28 °FIce fog.1 mph93%30.04 "Hg3 mi
7:00 PM28 °FIce fog.No wind93%30.04 "Hg3 mi
6:30 PM28 °FIce fog.1 mph86%30.01 "Hg3 mi
6:00 PM28 °FIce fog.1 mph93%30.01 "Hg2 mi
5:30 PM28 °FIce fog.3 mph93%30.01 "Hg3 mi
5:00 PM28 °FIce fog.1 mph86%30.01 "Hg3 mi
4:30 PM28 °FIce fog.1 mph86%30.01 "Hg3 mi
4:00 PM30 °FIce fog.3 mph86%29.98 "Hg3 mi
3:30 PM30 °FIce fog.3 mph80%29.98 "Hg3 mi
3:00 PM30 °FIce fog.3 mph80%29.98 "Hg3 mi
2:30 PM32 °FIce fog.3 mph80%29.98 "Hg3 mi
2:00 PM30 °FIce fog.3 mph80%29.98 "Hg3 mi
1:30 PM30 °FIce fog.3 mph80%29.98 "Hg3 mi
1:00 PM30 °FLight snow. Broken clouds.2 mph80%29.98 "Hg2 mi
12:30 PM30 °FIce fog.1 mph80%29.98 "Hg2 mi
12:00 PM30 °FLight snow. Ice fog.1 mph80%29.98 "Hg1 mi
11:30 AM28 °FLight snow. Ice fog.1 mph86%30.01 "Hg1 mi
11:00 AM28 °FLight snow. Ice fog.2 mph86%30.01 "Hg1 mi
10:30 AM27 °FLight snow. Ice fog.1 mph93%30.01 "Hg1 mi
10:00 AM27 °FLight snow. Ice fog.2 mph86%30.01 "Hg2 mi
9:30 AM27 °FLight snow. Ice fog.2 mph93%30.01 "Hg1 mi
9:00 AM27 °FLight snow. Ice fog.2 mph86%30.01 "Hg1 mi
8:30 AM25 °FLight snow. Partly sunny.3 mph93%30.01 "Hg1 mi
8:00 AM25 °FLight snow. Cloudy.3 mph93%30.01 "Hg1 mi
7:30 AM25 °FLight snow. Mostly cloudy.5 mph93%29.98 "Hg1 mi
7:00 AM27 °FLight snow. Partly cloudy.2 mph86%29.98 "Hg1 mi
6:00 AM25 °FPassing clouds.2 mph93%30.01 "Hg6 mi
5:30 AM25 °FPassing clouds.3 mph93%30.01 "HgN/A
4:30 AM23 °FPassing clouds.3 mph93%30.01 "HgN/A
4:00 AM23 °FClear.2 mph93%30.01 "Hg10 mi
3:30 AM23 °FClear.2 mph93%30.04 "Hg10 mi
3:00 AM23 °FPassing clouds.3 mph93%30.04 "HgN/A
Weather by CustomWeather, © 2014

See weather overviewHow to use our weather pages